SCP
0 0 0 0 0 0 0 0 0 0 0 0 0 0 0 0 0 0 0 0 0 0
0 0 0 0 0 0 0 0 0 0 0 0 0 0 0 0 0 0 0 0 0 0
0 0 0 0 0 0 0 0 0 0 0 0 0 0 0 0 0 0 0 0 0 0
0 0 0 0 0 0 0 0 0 0 0 0 0 0 0 0 0 0 0 0 0 0
0 0 0 0 0 0 0 0 0 0 0 0 0 0 0 0 0 0 0 0 0 0
0 0 0 0 0 0 0 0 0 0 0 0 0 0 0 0 0 0 0 0 0 0
0 0 0 0 0 0 0 0 0 0 0 0 0 0 0 0 0 0 0 0 0 0
0 0 0 0 0 0 0 0 0 0 0 0 0 0 0 0 0 0 0 0 0 0
0 0 0 0 0 0 0 0 0 0 0 0 0 0 0 0 0 0 0 0 0 0
0 0 0 0 0 0 0 0 0 0 0 0 0 0 0 0 0 0 0 0 0 0
0 0 0 0 0 0 0 0 0 0 0 0 0 0 0 0 0 0 0 0 0 0
0 0 0 0 0 0 0 0 0 0 0 0 0 0 0 0 0 0 0 0 0 0
0 0 0 0 0 0 0 0 0 0 0 0 0 0 0 0 0 0 0 0 0 0
0 0 0 0 0 0 0 0 0 0 0 0 0 0 0 0 0 0 0 0 0 0
Wind_Speed_500mb
90 85 76 66 65 70 69 71 68 68 66 68 69 68 66 66 69 64 69 44 33 12
85 80 75 70 55 62 65 61 66 71 72 71 77 72 71 52 39 35 25 18 10 14
75 77 70 60 57 70 66 68 74 73 76 73 62 46 23 26 11 16 20 16 27 18
77 62 67 65 62 69 71 78 78 75 67 42 20 4 8 25 12 22 28 17 10 7
74 73 74 68 50 86 111 83 80 58 30 11 17 9 33 41 28 29 23 19 10 13
72 71 69 71 63 76 62 63 65 17 6 9 9 27 36 34 26 20 17 13 16 17
62 74 78 72 66 60 57 61 49 46 34 41 34 33 43 29 20 21 23 20 14 9
50 65 70 77 76 77 71 69 69 62 62 59 50 38 30 30 27 23 18 13 8 5
52 57 65 80 87 88 88 83 79 68 64 52 45 35 30 23 21 19 14 9 6 2
43 55 66 76 91 91 84 79 70 57 49 43 40 34 24 18 17 14 12 8 3 2
38 48 59 68 67 67 67 61 54 50 43 33 31 28 23 21 16 13 11 8 5 3
34 41 45 51 52 56 51 49 48 39 42 27 32 29 23 20 19 15 13 11 8 3
47 56 58 58 54 53 43 42 36 40 37 35 33 33 28 23 19 16 13 9 4 6
56 56 51 47 46 38 37 39 36 36 37 34 29 28 24 17 15 11 4 4 4 12
Wind_Direction_500mb
239 236 237 242 237 232 231 227 225 227 234 242 237 237 240 240 241 247 248 224 181 176
246 242 239 239 245 237 232 231 232 228 233 238 236 233 233 223 194 188 181 181 190 224
247 244 243 239 239 233 228 230 230 230 233 232 217 189 158 161 221 209 207 238 256 266
232 241 246 238 238 232 230 231 232 224 207 172 122 201 191 248 213 239 237 227 229 245
236 236 239 227 243 235 233 218 214 162 119 159 39 281 235 228 209 216 210 203 196 223
228 231 231 228 255 251 235 206 154 152 148 66 63 220 220 219 210 191 197 196 203 221
222 222 233 233 231 221 209 192 196 200 193 185 189 207 207 192 175 182 191 191 194 218
244 231 224 232 222 218 210 201 196 193 189 189 178 176 174 165 173 186 195 190 191 226
238 234 227 215 214 202 196 192 188 184 178 174 162 158 159 166 174 181 181 174 156 94
234 228 223 199 196 188 187 181 177 164 151 146 143 150 157 166 180 174 172 159 138 116
226 217 208 199 182 175 167 160 149 137 131 147 148 158 176 185 178 163 148 142 139 117
204 191 177 164 156 144 134 130 134 145 147 167 167 158 161 165 165 167 158 145 141 105
155 149 149 144 136 131 141 136 152 151 144 162 155 147 156 166 158 153 144 132 104 20
134 131 132 131 126 132 149 148 165 148 143 156 150 156 154 159 161 130 111 64 357 351
Wind_Speed_850mb
90 85 76 66 65 70 69 71 68 68 66 68 69 68 66 66 69 64 69 44 33 12
85 80 75 70 55 62 65 61 66 71 72 71 77 72 71 52 39 35 25 18 10 14
75 77 70 60 57 70 66 68 74 73 76 73 62 46 23 26 11 16 20 16 27 18
77 62 67 65 62 69 71 78 78 75 67 42 20 4 8 25 12 22 28 17 10 7
74 73 74 68 50 86 111 83 80 58 30 11 17 9 33 41 28 29 23 19 10 13
72 71 69 71 63 76 62 63 65 17 6 9 9 27 36 34 26 20 17 13 16 17
62 74 78 72 66 60 57 61 49 46 34 41 34 33 43 29 20 21 23 20 14 9
50 65 70 77 76 77 71 69 69 62 62 59 50 38 30 30 27 23 18 13 8 5
52 57 65 80 87 88 88 83 79 68 64 52 45 35 30 23 21 19 14 9 6 2
43 55 66 76 91 91 84 79 70 57 49 43 40 34 24 18 17 14 12 8 3 2
38 48 59 68 67 67 67 61 54 50 43 33 31 28 23 21 16 13 11 8 5 3
34 41 45 51 52 56 51 49 48 39 42 27 32 29 23 20 19 15 13 11 8 3
47 56 58 58 54 53 43 42 36 40 37 35 33 33 28 23 19 16 13 9 4 6
56 56 51 47 46 38 37 39 36 36 37 34 29 28 24 17 15 11 4 4 4 12
Wind_Direction_850mb
239 236 237 242 237 232 231 227 225 227 234 242 237 237 240 240 241 247 248 224 181 176
246 242 239 239 245 237 232 231 232 228 233 238 236 233 233 223 194 188 181 181 190 224
247 244 243 239 239 233 228 230 230 230 233 232 217 189 158 161 221 209 207 238 256 266
232 241 246 238 238 232 230 231 232 224 207 172 122 201 191 248 213 239 237 227 229 245
236 236 239 227 243 235 233 218 214 162 119 159 39 281 235 228 209 216 210 203 196 223
228 231 231 228 255 251 235 206 154 152 148 66 63 220 220 219 210 191 197 196 203 221
222 222 233 233 231 221 209 192 196 200 193 185 189 207 207 192 175 182 191 191 194 218
244 231 224 232 222 218 210 201 196 193 189 189 178 176 174 165 173 186 195 190 191 226
238 234 227 215 214 202 196 192 188 184 178 174 162 158 159 166 174 181 181 174 156 94
234 228 223 199 196 188 187 181 177 164 151 146 143 150 157 166 180 174 172 159 138 116
226 217 208 199 182 175 167 160 149 137 131 147 148 158 176 185 178 163 148 142 139 117
204 191 177 164 156 144 134 130 134 145 147 167 167 158 161 165 165 167 158 145 141 105
155 149 149 144 136 131 141 136 152 151 144 162 155 147 156 166 158 153 144 132 104 20
134 131 132 131 126 132 149 148 165 148 143 156 150 156 154 159 161 130 111 64 357 351